Home > Weather > Ski > Past weeks

Flag for Norway Past Weather in Ski, Norway — Yesterday and Last 2 Weeks

Now
54 °F

Light rain. Partly cloudy.


Feels Like: 48 °F
Forecast: 45 / 65 °F
Wind: 24 mph from Southwest

Location: Statfjord B

Current Time: Aug 30, 2016 at 12:03:31 AM

Latest Report: Aug 29, 2016 at 11:20 PM


Visibility: 6 mi

Pressure: 29.92 "Hg

Humidity: 82%

Dew Point: 48 °F

Location of SkiLocation

Past Weather in Ski — Graph

°F

Ski Temperature Yesterday

Maximum temperature yesterday: 57 °F (at 12:50 PM)
Minimum temperature yesterday: 54 °F (at 12:20 AM)
Average temperature yesterday: 55 °F

High & Low Weather Summary for the Past Weeks

 TemperatureHumidityPressure
High63 °F (Aug 17, 10:20 AM)100% (Aug 15, 5:50 AM)30.30 "Hg (Aug 15, 5:50 AM)
Low50 °F (Aug 18, 5:50 AM)63% (Aug 17, 6:50 AM)29.68 "Hg (Aug 26, 12:20 PM)
Average55 °F90%30.03 "Hg
* Reported Aug 14 10:20 PM — Aug 29 10:50 PM, Ski, Weather by CustomWeather, © 2016

Note: Actual official high and low records may vary slightly from our data, if they occured in-between our weather recording intervals... More about our weather records

Advertising

Ski Weather History for the Previous 24 Hours

Scroll right to see more
 ConditionsComfort  
Time TempWeatherWind HumidityBarometerVisibility
10:50 PM
Mon, Aug 29
54 °FLight rain. Passing clouds.23 mph88%29.92 "HgN/A
10:20 PM55 °FPassing clouds.20 mph77%29.92 "HgN/A
9:50 PM54 °FPassing clouds.18 mph88%29.92 "HgN/A
9:20 PM54 °FPartly sunny.15 mph82%29.92 "HgN/A
8:50 PM54 °FPartly sunny.16 mph82%29.92 "HgN/A
8:20 PM54 °FScattered clouds.15 mph88%29.95 "HgN/A
7:50 PM55 °FPassing clouds.16 mph77%29.92 "HgN/A
7:20 PM55 °FPartly sunny.16 mph82%29.95 "HgN/A
6:50 PM55 °FScattered clouds.17 mph82%29.95 "HgN/A
6:20 PM57 °FPartly sunny.16 mph77%29.95 "HgN/A
5:50 PM57 °FScattered clouds.20 mph77%29.95 "HgN/A
5:20 PM55 °FBroken clouds.20 mph82%29.95 "HgN/A
4:50 PM55 °FPartly sunny.18 mph82%29.95 "HgN/A
4:20 PM55 °FPartly sunny.17 mph82%29.95 "HgN/A
3:50 PM55 °FPartly sunny.17 mph82%29.95 "HgN/A
3:20 PM55 °FPartly sunny.16 mph82%29.95 "HgN/A
2:50 PM55 °FPartly sunny.17 mph82%29.95 "HgN/A
2:20 PM55 °FPassing clouds.17 mph88%29.95 "HgN/A
1:50 PM55 °FBroken clouds.16 mph88%29.95 "HgN/A
1:20 PM55 °FBroken clouds.18 mph82%29.95 "HgN/A
12:50 PM57 °FBroken clouds.15 mph82%29.95 "HgN/A
12:20 PM55 °FBroken clouds.16 mph88%29.95 "HgN/A
11:50 AM55 °FPartly sunny.12 mph88%29.95 "HgN/A
11:20 AM55 °FPartly sunny.12 mph82%29.95 "HgN/A
10:50 AM55 °FPartly sunny.12 mph82%29.95 "HgN/A
10:20 AM55 °FScattered clouds.9 mph82%29.95 "HgN/A
9:50 AM55 °FPartly sunny.9 mph82%29.95 "HgN/A
9:20 AM55 °FPassing clouds.8 mph82%29.95 "HgN/A
8:50 AM55 °FPartly sunny.7 mph82%29.95 "HgN/A
8:20 AM55 °FScattered clouds.6 mph82%29.95 "HgN/A
7:50 AM55 °FCool.6 mph82%29.95 "HgN/A
7:20 AM54 °FCool.6 mph88%29.95 "HgN/A
6:50 AM54 °FCool.6 mph88%29.95 "HgN/A
6:20 AM54 °FPassing clouds.8 mph88%29.95 "HgN/A
5:50 AM54 °FPassing clouds.9 mph88%29.95 "HgN/A
5:20 AM54 °FPassing clouds.8 mph88%29.95 "HgN/A
4:50 AM54 °FPassing clouds.9 mph88%29.95 "HgN/A
4:20 AM54 °FPassing clouds.9 mph88%29.95 "HgN/A
3:50 AM54 °FPassing clouds.9 mph88%29.95 "HgN/A
3:20 AM54 °FPassing clouds.9 mph88%29.95 "HgN/A
2:50 AM54 °FPassing clouds.10 mph88%29.95 "HgN/A
2:20 AM54 °FCool.10 mph88%29.95 "HgN/A
1:50 AM54 °FCool.10 mph88%29.98 "HgN/A
1:20 AM54 °FCool.12 mph88%29.98 "HgN/A
12:50 AM54 °FCool.12 mph88%29.98 "HgN/A
12:20 AM54 °FCool.12 mph82%29.98 "HgN/A
Weather by CustomWeather, © 2016

See weather overviewHow to use our weather pages